| time (UTC) | temp F | wind direction | speed MPH | gust MPH | rain 1hr in | rain 24hr in | rain mn in | humidity % | barometer mb |
| 20260901224550 | 73 | 246 | 4.0 | 7.0 | 0.00 | 0.19 | 0.19 | 45 | 1004.3 |
| 20260901223044 | 71 | 223 | 2.0 | 5.0 | 0.00 | 0.19 | 0.19 | 44 | 1004.5 |
| 20260901221545 | 72 | 265 | 3.0 | 8.0 | 0.00 | 0.19 | 0.19 | 45 | 1004.6 |
| 20260901220047 | 72 | 295 | 4.0 | 9.0 | 0.00 | 0.19 | 0.19 | 45 | 1004.7 |
| 20260901214543 | 72 | 237 | 1.0 | 8.0 | 0.00 | 0.19 | 0.19 | 46 | 1004.9 |
| 20260901213038 | 72 | 268 | 6.0 | 9.0 | 0.00 | 0.19 | 0.19 | 48 | 1005.0 |
| 20260901211535 | 71 | 228 | 4.0 | 9.0 | 0.00 | 0.19 | 0.19 | 49 | 1005.3 |
| 20260901210035 | 70 | 275 | 0.0 | 6.0 | 0.00 | 0.19 | 0.19 | 50 | 1005.5 |
| 20260901204533 | 70 | 92 | 1.0 | 8.0 | 0.00 | 0.19 | 0.19 | 49 | 1005.5 |
| 20260901203037 | 70 | 213 | 1.0 | 7.0 | 0.00 | 0.19 | 0.19 | 51 | 1005.6 |
| 20260901201529 | 70 | 300 | 2.0 | 7.0 | 0.00 | 0.19 | 0.19 | 50 | 1005.8 |
| 20260901200025 | 69 | 262 | 1.0 | 7.0 | 0.00 | 0.19 | 0.19 | 52 | 1005.9 |
| 20260901194522 | 69 | 77 | 3.0 | 8.0 | 0.00 | 0.19 | 0.19 | 56 | 1006.1 |
| 20260901193022 | 68 | 72 | 2.0 | 8.0 | 0.00 | 0.19 | 0.19 | 56 | 1006.2 |
| 20260901191528 | 68 | 140 | 1.0 | 5.0 | 0.00 | 0.19 | 0.19 | 57 | 1006.4 |
| 20260901190018 | 66 | 73 | 3.0 | 5.0 | 0.00 | 0.19 | 0.19 | 60 | 1006.7 |
| 20260901184515 | 67 | 84 | 2.0 | 4.0 | 0.00 | 0.19 | 0.19 | 62 | 1006.8 |
| 20260901183013 | 66 | 355 | 2.0 | 4.0 | 0.00 | 0.19 | 0.19 | 62 | 1006.9 |
| 20260901181512 | 65 | 325 | 2.0 | 5.0 | 0.00 | 0.19 | 0.19 | 66 | 1007.1 |
| 20260901180008 | 64 | 5 | 1.0 | 6.0 | 0.00 | 0.19 | 0.19 | 71 | 1007.2 |
| 20260901174505 | 63 | 326 | 2.0 | 5.0 | 0.00 | 0.19 | 0.19 | 72 | 1007.3 |
| 20260901173003 | 62 | 69 | 1.0 | 6.0 | 0.00 | 0.19 | 0.19 | 74 | 1007.4 |
| 20260901171503 | 60 | 67 | 1.0 | 3.0 | 0.00 | 0.19 | 0.19 | 79 | 1007.5 |
| 20260901170106 | 59 | 232 | 1.0 | 4.0 | 0.00 | 0.19 | 0.19 | 83 | 1007.6 |
| 20260901164614 | 57 | 232 | 0.0 | 3.0 | 0.00 | 0.19 | 0.19 | 84 | 1007.8 |
| 20260901163115 | 57 | 232 | 0.0 | 2.0 | 0.00 | 0.19 | 0.19 | 84 | 1007.8 |
| 20260901161558 | 56 | 232 | 0.0 | 3.0 | 0.00 | 0.19 | 0.19 | 90 | 1007.8 |
| 20260901160056 | 55 | 232 | 1.0 | 3.0 | 0.00 | 0.19 | 0.19 | 91 | 1007.9 |
| 20260901154557 | 55 | 232 | 1.0 | 3.0 | 0.00 | 0.19 | 0.19 | 91 | 1007.9 |
| 20260901153053 | 55 | 130 | 0.0 | 1.0 | 0.00 | 0.19 | 0.19 | 93 | 1008.1 |
| 20260901151552 | 54 | 130 | 1.0 | 4.0 | 0.07 | 0.19 | 0.19 | 94 | 1008.0 |
| 20260901150052 | 53 | 130 | 0.0 | 4.0 | 0.15 | 0.19 | 0.19 | 93 | 1008.2 |
| 20260901144551 | 53 | 130 | 0.0 | 3.0 | 0.15 | 0.19 | 0.19 | 93 | 1008.3 |
| 20260901143052 | 53 | 130 | 0.0 | 0.0 | 0.14 | 0.18 | 0.18 | 92 | 1008.3 |
| 20260901141550 | 53 | 130 | 0.0 | 0.0 | 0.07 | 0.11 | 0.11 | 92 | 1008.3 |
| 20260901140058 | 53 | 128 | 0.0 | 0.0 | 0.00 | 0.04 | 0.04 | 92 | 1008.2 |
| 20260901134557 | 53 | 128 | 0.0 | 3.0 | 0.00 | 0.04 | 0.04 | 92 | 1008.2 |
| 20260901133100 | 53 | 128 | 1.0 | 4.0 | 0.00 | 0.04 | 0.04 | 91 | 1008.0 |
| 20260901131551 | 53 | 226 | 1.0 | 3.0 | 0.00 | 0.04 | 0.04 | 92 | 1008.0 |
| 20260901130046 | 53 | 226 | 0.0 | 0.0 | 0.00 | 0.04 | 0.04 | 92 | 1008.0 |
| 20260901124546 | 52 | 226 | 0.0 | 1.0 | 0.00 | 0.04 | 0.04 | 92 | 1007.9 |
| 20260901123045 | 53 | 226 | 0.0 | 1.0 | 0.02 | 0.04 | 0.04 | 92 | 1008.0 |
| 20260901121550 | 53 | 226 | 0.0 | 0.0 | 0.03 | 0.04 | 0.04 | 92 | 1008.0 |
| 20260901120044 | 53 | 226 | 1.0 | 3.0 | 0.03 | 0.04 | 0.04 | 91 | 1008.2 |
| 20260901114543 | 53 | 226 | 0.0 | 2.0 | 0.04 | 0.04 | 0.04 | 90 | 1008.2 |
| 20260901113042 | 53 | 226 | 0.0 | 2.0 | 0.02 | 0.02 | 0.02 | 90 | 1008.3 |
| 20260901111539 | 53 | 226 | 1.0 | 4.0 | 0.01 | 0.01 | 0.01 | 89 | 1008.3 |
| 20260901110045 | 54 | 226 | 0.0 | 2.0 | 0.01 | 0.01 | 0.01 | 87 | 1008.2 |
| 20260901104540 | 55 | 226 | 0.0 | 2.0 | 0.00 | 0.00 | 0.00 | 83 | 1008.4 |
| 20260901103041 | 55 | 226 | 2.0 | 4.0 | 0.00 | 0.00 | 0.00 | 82 | 1008.5 |
| 20260901101535 | 54 | 226 | 0.0 | 2.0 | 0.00 | 0.00 | 0.00 | 82 | 1008.3 |
| 20260901100048 | 54 | 226 | 0.0 | 3.0 | 0.00 | 0.00 | 0.00 | 82 | 1008.3 |
| 20260901094534 | 54 | 226 | 2.0 | 4.0 | 0.00 | 0.00 | 0.00 | 82 | 1008.0 |
| 20260901093029 | 55 | 226 | 2.0 | 3.0 | 0.00 | 0.00 | 0.00 | 81 | 1007.9 |
| 20260901091533 | 55 | 120 | 2.0 | 3.0 | 0.00 | 0.00 | 0.00 | 79 | 1007.9 |
| 20260901090043 | 55 | 120 | 0.0 | 3.0 | 0.00 | 0.00 | 0.00 | 79 | 1008.1 |
| 20260901084523 | 56 | 120 | 0.0 | 4.0 | 0.00 | 0.00 | 0.00 | 78 | 1008.1 |
| 20260901083023 | 57 | 94 | 2.0 | 3.0 | 0.00 | 0.00 | 0.00 | 74 | 1008.3 |
| 20260901081517 | 57 | 94 | 2.0 | 6.0 | 0.00 | 0.00 | 0.00 | 71 | 1008.6 |
| 20260901080016 | 58 | 92 | 3.0 | 7.0 | 0.00 | 0.00 | 0.00 | 69 | 1009.0 |
| 20260901074508 | 59 | 169 | 1.0 | 4.0 | 0.00 | 0.00 | 0.00 | 64 | 1009.1 |
| 20260901073016 | 60 | 202 | 3.0 | 7.0 | 0.00 | 0.00 | 0.00 | 62 | 1009.3 |
| 20260901071502 | 61 | 192 | 1.0 | 5.0 | 0.00 | 0.00 | 0.00 | 60 | 1009.6 |
| 20260901070001 | 61 | 183 | 2.0 | 8.0 | 0.00 | 0.00 | 0.00 | 58 | 1009.7 |
| 20260901064613 | 61 | 150 | 2.0 | 10.0 | 0.00 | 0.00 | 0.00 | 58 | 1009.7 |
| 20260901063126 | 61 | 175 | 2.0 | 8.0 | 0.00 | 0.00 | 0.00 | 59 | 1009.7 |
| 20260901061556 | 62 | 161 | 3.0 | 8.0 | 0.00 | 0.00 | 0.00 | 57 | 1009.8 |
| 20260901060053 | 62 | 193 | 1.0 | 7.0 | 0.00 | 0.00 | 0.00 | 55 | 1010.1 |
| 20260901054552 | 62 | 120 | 1.0 | 7.0 | 0.00 | 0.00 | 0.00 | 54 | 1010.3 |
| 20260901053057 | 63 | 144 | 2.0 | 7.0 | 0.00 | 0.00 | 0.00 | 53 | 1010.4 |
| 20260901051554 | 63 | 119 | 1.0 | 7.0 | 0.00 | 0.00 | 0.00 | 53 | 1010.5 |
| 20260901050051 | 62 | 142 | 2.0 | 8.0 | 0.00 | 0.00 | 0.00 | 54 | 1010.8 |
| 20260901044550 | 60 | 167 | 4.0 | 7.0 | 0.00 | 0.00 | 0.00 | 59 | 1010.6 |
| 20260901043050 | 60 | 238 | 2.0 | 4.0 | 0.00 | 0.00 | 0.00 | 61 | 1010.2 |
| 20260901041549 | 60 | 271 | 1.0 | 4.0 | 0.00 | 0.00 | 0.00 | 63 | 1009.9 |
| 20260901040049 | 61 | 271 | 0.0 | 6.0 | 0.00 | 0.00 | 0.00 | 60 | 1009.8 |
| 20260901034551 | 64 | 255 | 3.0 | 5.0 | 0.00 | 0.00 | 0.00 | 53 | 1009.3 |
| 20260901033048 | 64 | 190 | 1.0 | 6.0 | 0.00 | 0.00 | 0.00 | 48 | 1009.2 |
| 20260901031550 | 64 | 169 | 2.0 | 7.0 | 0.00 | 0.00 | 0.00 | 49 | 1009.3 |
| 20260901030047 | 64 | 175 | 3.0 | 10.0 | 0.00 | 0.00 | 0.00 | 49 | 1009.2 |
| 20260901024546 | 65 | 194 | 4.0 | 7.0 | 0.00 | 0.00 | 0.00 | 48 | 1009.2 |
| 20260901023048 | 65 | 125 | 5.0 | 10.0 | 0.00 | 0.00 | 0.00 | 46 | 1009.2 |
| 20260901021553 | 66 | 153 | 3.0 | 10.0 | 0.00 | 0.00 | 0.00 | 44 | 1009.1 |
| 20260901020049 | 67 | 147 | 3.0 | 7.0 | 0.00 | 0.00 | 0.00 | 42 | 1009.2 |
| 20260901014548 | 66 | 150 | 3.0 | 7.0 | 0.00 | 0.00 | 0.00 | 44 | 1009.0 |
| 20260901013059 | 67 | 141 | 2.0 | 7.0 | 0.00 | 0.00 | 0.00 | 46 | 1008.8 |
| 20260901011549 | 68 | 90 | 4.0 | 7.0 | 0.00 | 0.00 | 0.00 | 44 | 1008.9 |
| 20260901010051 | 69 | 184 | 1.0 | 5.0 | 0.00 | 0.00 | 0.00 | 41 | 1009.3 |
| 20260901004550 | 69 | 244 | 5.0 | 9.0 | 0.00 | 0.00 | 0.00 | 41 | 1009.4 |
| 20260901003054 | 69 | 177 | 5.0 | 11.0 | 0.00 | 0.00 | 0.00 | 40 | 1009.4 |
| 20260901001546 | 70 | 219 | 7.0 | 15.0 | 0.00 | 0.00 | 0.00 | 39 | 1009.5 |
| 20260901000044 | 73 | 180 | 5.0 | 12.0 | 0.00 | 0.00 | 0.00 | 36 | 1009.1 |
| 20260831234543 | 75 | 178 | 2.0 | 4.0 | 0.00 | 0.00 | 0.00 | 38 | 1008.4 |
| 20260831233040 | 77 | 188 | 3.0 | 6.0 | 0.00 | 0.00 | 0.00 | 28 | 1008.4 |
| 20260831231538 | 77 | 201 | 3.0 | 8.0 | 0.00 | 0.00 | 0.00 | 27 | 1008.4 |
| 20260831230038 | 77 | 259 | 1.0 | 4.0 | 0.00 | 0.00 | 0.00 | 26 | 1008.5 |